Location: Unspecified
(0.0000°N, 0.0000°E)
Time: 14:52:26
(UTC+00:00)

Vanguard 1 - Visible Passes

Search period start: 20 July 2019 00:00
Search period end: 30 July 2019 00:00
Orbit: 653 x 3830 km, 34.3° (Epoch: 20 July)

Date Brightness Start Highest point End Pass type
(mag) Time Alt. Az. Time Alt. Az. Time Alt. Az.
20 Jul 13.0 01:27:26 10° NW 01:49:08 46° NNE 02:03:51 10° E visible
20 Jul 11.8 03:55:08 10° WNW 04:15:09 77° SW 04:26:00 10° SE visible
20 Jul 13.6 18:26:09 10° WNW 18:35:09 26° NNW 18:48:59 10° NNE visible
20 Jul 14.1 20:55:07 10° NW 21:06:28 18° N 21:20:06 10° NE visible
20 Jul 13.8 23:22:54 10° NNW 23:41:04 27° NNE 23:57:33 10° ENE visible
21 Jul 12.7 01:48:49 10° NW 02:11:20 58° NNE 02:25:48 10° ESE visible
21 Jul 11.9 04:17:28 10° WNW 04:36:19 59° SW 04:46:43 10° SE visible
21 Jul 13.8 18:49:04 10° WNW 18:57:51 21° NNW 19:10:25 10° NNE visible
21 Jul 14.1 21:18:10 10° NNW 21:30:25 18° N 21:44:32 10° NE visible
21 Jul 13.6 23:44:22 10° NNW 00:04:12 33° NNE 00:21:11 10° E visible
22 Jul 12.4 02:10:19 10° NW 02:33:15 71° NE 02:47:23 10° ESE visible
22 Jul 12.0 04:40:19 10° WNW 04:57:22 44° SW 05:07:13 10° SSE visible
22 Jul 13.9 19:12:23 10° NW 19:20:53 18° N 19:32:17 10° NNE visible
22 Jul 14.0 21:40:35 10° NNW 21:54:18 20° NNE 22:09:32 10° NE visible
23 Jul 13.3 00:05:41 10° NW 00:26:58 40° NNE 00:44:14 10° E visible
23 Jul 12.2 02:31:59 10° NW 02:54:55 87° NE 03:08:38 10° SE visible
23 Jul 12.3 05:03:48 10° W 05:18:26 32° SW 05:27:29 10° SSE visible
23 Jul 14.0 19:35:51 10° NW 19:44:14 16° N 19:54:54 10° NNE visible
23 Jul 13.9 22:02:25 10° NNW 22:17:58 23° NNE 22:33:32 11° ENE visible
24 Jul 13.2 00:26:56 10° NW 00:58:38 34° E 01:06:44 10° ESE visible
24 Jul 12.1 02:53:57 10° WNW 03:16:22 76° SW 03:29:38 10° SE visible
24 Jul 12.5 05:28:05 10° W 05:39:39 23° SW 05:47:26 10° S visible
24 Jul 14.0 19:59:01 10° NNW 20:07:50 16° N 20:18:41 10° NE visible
24 Jul 13.7 22:23:51 10° NNW 22:41:17 28° NNE 22:49:35 23° NE visible
25 Jul 13.1 00:48:13 10° NW 01:21:34 35° E 01:28:45 10° ESE visible
25 Jul 12.1 03:34:31 55° WSW 03:37:40 60° SW 03:50:25 10° SE visible
25 Jul 14.0 20:21:31 10° NNW 20:31:31 17° NNE 20:43:39 10° NE visible
25 Jul 13.5 22:45:03 10° NNW 23:04:14 34° NNE 23:06:48 34° NE visible
26 Jul 13.0 01:09:37 10° NW 01:43:22 37° ESE 01:50:24 10° ESE visible
26 Jul 12.3 03:56:14 44° WSW 03:58:54 46° SW 04:11:01 10° SSE visible
26 Jul 13.8 18:17:48 10° NNW 18:23:11 13° N 18:29:54 10° NNE visible
26 Jul 13.9 20:43:18 10° NNW 20:55:07 19° NNE 21:09:16 10° ENE visible
26 Jul 13.3 23:06:08 10° NW 23:24:32 41° NNE 23:24:32 41° NNE visible
27 Jul 12.9 01:31:13 10° NW 02:04:35 39° SE 02:11:44 10° SE visible
27 Jul 12.5 04:17:25 34° WSW 04:20:12 35° SW 04:31:24 10° SSE visible
27 Jul 13.9 18:41:25 10° NNW 18:46:20 12° N 18:52:11 10° NNE visible
27 Jul 13.8 21:04:37 10° NNW 21:18:29 23° NNE 21:30:01 16° ENE visible
27 Jul 13.3 23:27:13 10° NW 00:12:38 - ESE 23:42:34 44° N visible
28 Jul 12.8 01:53:07 10° WNW 02:25:26 40° SE 02:32:48 10° SE visible
28 Jul 12.7 04:38:14 25° SW 04:41:39 26° SW 04:51:35 10° SSE visible
28 Jul 13.9 19:04:11 10° NNW 19:09:41 12° N 19:16:12 10° NNE visible
28 Jul 13.6 21:25:40 10° NNW 21:41:30 28° NNE 21:48:16 25° NE visible
28 Jul 13.3 23:48:22 10° NW 00:33:15 - ESE 00:00:51 42° NNW visible
29 Jul 12.7 02:46:01 40° SSE 02:46:01 40° SSE 02:53:39 10° SE visible
29 Jul 12.9 04:58:48 17° SW 05:03:22 19° SW 05:11:29 10° S visible
29 Jul 13.9 19:25:50 10° NNW 19:33:04 14° NNE 19:41:51 10° NE visible
29 Jul 13.4 21:46:35 10° NNW 22:04:10 34° NNE 22:06:42 34° NE visible
